Hourly Data Report for July 04, 2020

TORONTO CITY
ONTARIO
Current Station Operator: ECCC - MSC

43°40'00.000" N
79°24'00.000" W
112.50 m
6158355
71508
XTO

Download Data

Hourly Data (July 2020)
Hourly Data Report for July 4, 2020
TIME
LST
Temp Definition
°C
Dew Point Definition
°C
Rel Hum Definition
%
Precip. Amount Definition
mm

Wind Dir Definition
10's deg

Wind Spd Definition
km/h
Visibility Definition
km
Stn Press Definition
kPa
Hmdx Definition


Wind Chill Definition


Weather Definition


00:00 24.6 15.0 55 0.0       100.03 29   LegendNANA
01:00 24.0 15.1 58 0.0       100.06 28   LegendNANA
02:00 24.1 13.4 51 0.0       100.07 27   LegendNANA
03:00 22.9 11.9 50 0.0       100.10 25   LegendNANA
04:00 22.1 11.5 51 0.0       100.13     LegendNANA
05:00 22.0 11.2 50 0.0       100.16     LegendNANA
06:00 22.4 11.0 48 0.0       100.20     LegendNANA
07:00 23.2 11.1 47 0.0       100.21 25   LegendNANA
08:00 25.1 9.3 37 0.0       100.23 26   LegendNANA
09:00 28.0 9.1 30 0.0       100.27 29   LegendNANA
10:00 28.8 6.7 25 0.0       100.29 29   LegendNANA
11:00 29.6 8.2 26 0.0       100.29 30   LegendNANA
12:00 29.1 7.6 26 0.0       100.29 29   LegendNANA
13:00 29.4 6.0 23 0.0       100.24 29   LegendNANA
14:00 29.8 6.4 23 0.0       100.24 30   LegendNANA
15:00 30.0 8.2 26 0.2       100.22 30   LegendNANA
16:00 29.5 7.1 24 0.2       100.18 30   LegendNANA
17:00 28.3 6.8 26 0.3       100.09 28   LegendNANA
18:00 27.3 6.9 27 0.2       100.08 27   LegendNANA
19:00 27.0 6.4 27 0.0       100.09 27   LegendNANA
20:00 25.0 8.0 34 0.0       100.10 25   LegendNANA
21:00 26.0 8.7 33 0.0       100.15 27   LegendNANA
22:00 24.9 7.7 33 0.0       100.18 25   LegendNANA
23:00 23.0 7.5 37 0.0       100.19     LegendNANA

Notes on Data Quality.

Legend

  • E = Estimated
  • M = Missing
  • NA = Not Available*
  • [empty] = Indicates an unobserved value
Date modified: